Regional Weather Roundup
Issued by NWS

Home | Current Version | Previous Version | Graphics & Text | Print | Product List | Glossary Off
Versions: 1 2 3 4 5 6 7 8 9 10 11 12 13 14 15 16 17 18 19 20 21 22 23 24 25 26 27 28 29 30 31 32 33 34 35 36 37 38 39 40 41 42 43 44 45 46 47 48 49 50

000
ASUS43 KDMX 291406
RWRIA

WEATHER ROUNDUP FOR IOWA
NATIONAL WEATHER SERVICE DES MOINES IA
900 AM CDT MON MAY 29 2017

NOTE: "FAIR" INDICATES FEW OR NO CLOUDS BELOW 12,000 FEET WITH NO
SIGNIFICANT WEATHER AND/OR OBSTRUCTIONS TO VISIBILITY.

* - THESE STATIONS ARE NOT NWS STATIONS...THUS NOT UNDER NWS
QUALITY CONTROL.  THEY ALSO DO NOT REPORT WEATHER SUCH
AS PRECIPITATION OR FOG.

IAZ001>003-012>014-020>022-031>034-043>046-291500-
   NORTHWEST IOWA

CITY           SKY/WX    TMP DP  RH WIND       PRES   REMARKS
CARROLL *      SUNNY     66  45  45 NW15G21   29.94S
CHEROKEE *     SUNNY     60  47  62 NW12G20   29.96R
DENISON *      SUNNY     64  48  55 W9        29.98R
LE MARS *      SUNNY     61  46  59 NW15      29.98S
ORANGE CITY *  SUNNY     57  46  67 NW16G24   29.96S
SHELDON *      SUNNY     59  45  58 NW18      29.93S
SIOUX CITY     SUNNY     61  48  62 NW15      29.99R
SPENCER        SUNNY     59  48  67 NW18      29.92S
STORM LAKE *   SUNNY     61  45  55 NW20G25   29.95R
$$

IAZ055>058-069>071-079>083-090>094-291500-
   SOUTHWEST IOWA

CITY           SKY/WX    TMP DP  RH WIND       PRES   REMARKS
ATLANTIC *     SUNNY     66  46  48 NW6       29.96R
AUDUBON *      SUNNY     64  45  48 NW5       29.96S
CLARINDA *     SUNNY     66  48  52 N7        29.99R
COUNCIL BLFS * SUNNY     64  50  59 NW7       29.97S
CRESTON *      SUNNY     64  48  55 NW8       29.97R
HARLAN  *      SUNNY     64  46  52 W8        29.99S
LAMONI         MOSUNNY   65  49  56 N15       29.94R
RED OAK *      SUNNY     66  48  52 N8        29.97R
SHENANDOAH *   SUNNY     64  48  55 CALM      29.98R
$$

IAZ047>049-059>061-072>074-084-291500-
   CENTRAL IOWA

CITY           SKY/WX    TMP DP  RH WIND       PRES   REMARKS
AMES           SUNNY     65  47  52 W14G20    29.91S
ANKENY *       SUNNY     64  48  55 NW12      29.93S
BOONE *        SUNNY     63 N/A N/A NW13G18   29.91F
CHARITON *     MOSUNNY   63  50  63 NW9       29.94R
DES MOINES     MOSUNNY   68  46  45 NW13      29.92S
GRINNELL*      MOSUNNY   64  47  55 NW13      29.92R
KNOXVILLE *    SUNNY     64  48  55 NW10      29.92R
MARSHALLTOWN   MOSUNNY   63  48  58 NW15      29.90R
NEWTON *       MOSUNNY   64  46  52 NW8G16    29.91R
PELLA *        SUNNY     64  47  54 NW8       29.93R
PERRY *          N/A     64  44  46 NW12G17   29.93S
$$

IAZ004>006-015-016-023>025-035-036-291500-
   NORTH CENTRAL IOWA

CITY           SKY/WX    TMP DP  RH WIND       PRES   REMARKS
ALGONA *       SUNNY     61  46  59 NW15G24   29.91S
CLARION *      SUNNY     61  46  59 W14G21    29.90S
ESTHERVILLE    SUNNY     58  48  69 NW17      29.90S
FORT DODGE *   SUNNY     63  46  55 W10G18    29.93S
MASON CITY     SUNNY     60  45  57 NW17G29   29.89S
FOREST CITY *    N/A     61  37  41 NW15G21   29.88S
WEBSTER CITY * SUNNY     63  45  51 W20G25    29.89S
IOWA FALLS *     N/A     62  47  57 W17G23    29.91S
$$

IAZ007>011-017>019-026>030-037>042-050>054-066-291500-
   NORTHEAST IOWA

CITY           SKY/WX    TMP DP  RH WIND       PRES   REMARKS
CEDAR RAPIDS   PTSUNNY   62  50  64 NW13      29.88R
CHARLES CITY * PTSUNNY   59  45  58 W17G26    29.87S
CLINTON *      PTSUNNY   63  52  67 W14       29.87R
DECORAH *      MOSUNNY   57  46  67 W12G22    29.83S
DUBUQUE        CLOUDY    60  48  64 NW13G22   29.85R
MONTICELLO *   CLOUDY    63  48  59 NW16G23   29.86S
OELWEIN *      SUNNY     61  46  59 NW22G29   29.87R
WATERLOO       SUNNY     62  45  53 NW15G23   29.87S
$$

IAZ064-065-067-068-078-291500-
   EAST CENTRAL IOWA

CITY           SKY/WX    TMP DP  RH WIND       PRES   REMARKS
DAVENPORT      PTSUNNY   65  48  54 NW16      29.87S
IOWA CITY      PTSUNNY   63  48  58 NW12G17   29.90R
MT. PLEASANT * CLOUDY    62  47  58 NW7       29.90F
MUSCATINE *    CLOUDY    64  48  55 NW10G18   29.89S
QUAD CITIES    CLOUDY    66  47  50 W8        29.87R
$$

IAZ062-063-075>077-085>089-095>099-291500-
   SOUTHEAST IOWA

CITY           SKY/WX    TMP DP  RH WIND       PRES   REMARKS
BURLINGTON     MOSUNNY   67  50  54 NW9       29.89R
FAIRFIELD *    CLOUDY    64  48  55 NW9       29.89F
FORT MADISON * MOSUNNY   66  48  52 NW9       29.91R
KEOKUK *       MOSUNNY   66  52  59 MISG      29.90S
OSKALOOSA *      N/A     64  47  54 NW13G18   29.92R
CENTERVILLE *    N/A     64  46  52 NW10      29.94S
OTTUMWA        MOSUNNY   65  51  60 NW8       29.90S
WASHINGTON *   CLOUDY    64  50  59 NW9       29.90F
$$

ABBREVIATIONS USED IN REMARKS
   TC - TEMPERATURES IN CELSIUS
  WCI - WIND CHILL INDEX
   HX - HEAT INDEX
  VSB - VISIBILITY
$$




USA.gov is the U.S. government's official web portal to all federal, state and local government web resources and services.